National Weather Service Raw Text Product

Displaying AFOS PIL: RWRIA Received: 2018-02-14 03:00 UTC


905 
ASUS43 KDMX 140306
RWRIA 

WEATHER ROUNDUP FOR IOWA
NATIONAL WEATHER SERVICE DES MOINES IA
900 PM CST TUE FEB 13 2018

NOTE: "FAIR" INDICATES FEW OR NO CLOUDS BELOW 12,000 FEET WITH NO
SIGNIFICANT WEATHER AND/OR OBSTRUCTIONS TO VISIBILITY.

* - THESE STATIONS ARE NOT NWS STATIONS...THUS NOT UNDER NWS
QUALITY CONTROL.  THEY ALSO DO NOT REPORT WEATHER SUCH 
AS PRECIPITATION OR FOG.  

IAZ001>003-012>014-020>022-031>034-043>046-140400-
   NORTHWEST IOWA
  
CITY           SKY/WX    TMP DP  RH WIND       PRES   REMARKS
CARROLL *      CLOUDY    25  21  86 S3        30.13S                  
CHEROKEE *     CLOUDY    27  24  87 S5        30.10S WCI  22          
DENISON *      CLEAR     28  25  86 S8        30.14F WCI  20          
LE MARS *      CLEAR     25  23  93 S7        30.08F WCI  17          
ORANGE CITY *  CLOUDY    21  21 100 SW8       30.07S WCI  12          
SHELDON *      CLOUDY    21  21 100 S9        30.05F WCI  11          
SIOUX CITY     CLOUDY    29  23  78 S3        30.11F                  
SPENCER        CLOUDY    20  16  84 S12       30.07F WCI   8          
STORM LAKE *   CLOUDY    27  23  86 SW14      30.08F WCI  15          
$$
 
IAZ055>058-069>071-079>083-090>094-140400-
   SOUTHWEST IOWA
  
CITY           SKY/WX    TMP DP  RH WIND       PRES   REMARKS
ATLANTIC *     CLOUDY    23  23 100 CALM      30.15F                  
AUDUBON *      CLOUDY    21  18  86 CALM      30.14F                  
CLARINDA *     CLEAR     32  28  86 S5        30.20S WCI  27          
COUNCIL BLFS * CLEAR     34  32  93 S7        30.14F WCI  28          
CRESTON *      CLEAR     34  25  69 S13       30.17S WCI  25          
HARLAN  *      PTCLDY    27  27 100 CALM      30.18S                  
LAMONI         CLEAR     36  23  59 S13       30.18F WCI  27          
RED OAK *      CLEAR     27  25  93 CALM      30.17S                  
SHENANDOAH *   CLEAR     30  28  93 CALM      30.18S                  
$$
 
IAZ047>049-059>061-072>074-084-140400-
   CENTRAL IOWA
  
CITY           SKY/WX    TMP DP  RH WIND       PRES   REMARKS
AMES           CLOUDY    17  13  84 CALM      30.16F                  
ANKENY *       CLOUDY    27  23  86 CALM      30.18F                  
BOONE *        CLOUDY    25  21  86 S8        30.13F WCI  16          
CHARITON *     CLEAR     34  25  69 S14       30.18S WCI  24          
DES MOINES     CLOUDY    32  23  69 S9        30.17F WCI  24          
GRINNELL*      CLOUDY    27  22  81 SE9       30.20F WCI  18          
KNOXVILLE *    CLOUDY    32  21  64 S7        30.18F WCI  26          
MARSHALLTOWN   CLEAR     26  20  77 S10       30.16F WCI  16          
NEWTON *       CLOUDY    25  19  80 S10       30.18F WCI  15          
PELLA *        CLOUDY    31  23  72 SE6       30.21F WCI  25          
PERRY *        FAIR      20  17  90 S8        30.15F WCI  10          
$$
 
IAZ004>006-015-016-023>025-035-036-140400-
   NORTH CENTRAL IOWA
  
CITY           SKY/WX    TMP DP  RH WIND       PRES   REMARKS
ALGONA *       CLOUDY    21 N/A N/A S13       30.09F WCI   9          
CLARION *      CLOUDY    23  23 100 S13       30.12F WCI  11          
ESTHERVILLE    CLOUDY    19  17  92 S12       30.06F WCI   7          
FORT DODGE *   CLOUDY    28  23  81 S10       30.12F WCI  19          
MASON CITY     CLOUDY    16  12  84 S10       30.12F FOG     WCI   4  
FOREST CITY *  FAIR      23  21  93 S8        30.10F WCI  14          
WEBSTER CITY * CLOUDY    25  19  80 S9        30.12S WCI  15          
IOWA FALLS *   FAIR      19  16  88 S7        30.16S WCI  10          
$$

IAZ007>011-017>019-026>030-037>042-050>054-066-140400-
   NORTHEAST IOWA
  
CITY           SKY/WX    TMP DP  RH WIND       PRES   REMARKS
CEDAR RAPIDS   FAIR      27  20  75 S8        30.20S WCI  19          
CHARLES CITY * FAIR      23  21  93 S10       30.15F WCI  12          
CLINTON *      FAIR      22  17  81 SE7       30.25F WCI  13          
DECORAH *      FAIR      23  19  86 S9        30.14F WCI  13          
DUBUQUE        FAIR      18  13  80 S8        30.21S WCI   8          
MONTICELLO *   FAIR      23  18  80 S8        30.21F WCI  14          
OELWEIN *      FAIR      19  19 100 S13       30.17F WCI   7          
WATERLOO       FAIR      22  18  85 S8        30.18F WCI  12          
$$
 
IAZ064-065-067-068-078-140400-
   EAST CENTRAL IOWA
  
CITY           SKY/WX    TMP DP  RH WIND       PRES   REMARKS
DAVENPORT      FAIR      29  21  72 S12       30.26F WCI  19          
IOWA CITY      FAIR      24  17  74 CALM      30.25F                  
MT. PLEASANT * CLOUDY    32  25  74 S10       30.25F WCI  24          
MUSCATINE *    FAIR      19  18  93 CALM      30.26F                  
QUAD CITIES    FAIR      27  21  78 CALM      30.25F                  
$$
 
IAZ062-063-075>077-085>089-095>099-140400-
   SOUTHEAST IOWA
  
CITY           SKY/WX    TMP DP  RH WIND       PRES   REMARKS
BURLINGTON     CLOUDY    31  23  72 S5        30.26S WCI  26          
FAIRFIELD *    CLOUDY    32  25  74 S10       30.22F WCI  24          
FORT MADISON * CLEAR     32  27  80 S7        30.26F WCI  26          
KEOKUK *       CLEAR     34  28  80 S7        30.25F WCI  28          
OSKALOOSA *    FAIR      25  21  85 S8        30.22S WCI  16          
OTTUMWA        CLOUDY    32  23  69 S12       30.21F WCI  23          
WASHINGTON *   CLOUDY    30  25  80 S10       30.24F WCI  21          
$$

ABBREVIATIONS USED IN REMARKS
   TC - TEMPERATURES IN CELSIUS
  WCI - WIND CHILL INDEX
   HX - HEAT INDEX
  VSB - VISIBILITY  
$$

  

728 
ASUS43 KDMX 140301
RWRIA 

WEATHER ROUNDUP FOR IOWA
NATIONAL WEATHER SERVICE DES MOINES IA
900 PM CST TUE FEB 13 2018

NOTE: "FAIR" INDICATES FEW OR NO CLOUDS BELOW 12,000 FEET WITH NO
SIGNIFICANT WEATHER AND/OR OBSTRUCTIONS TO VISIBILITY.

* - THESE STATIONS ARE NOT NWS STATIONS...THUS NOT UNDER NWS
QUALITY CONTROL.  THEY ALSO DO NOT REPORT WEATHER SUCH 
AS PRECIPITATION OR FOG.  

IAZ001>003-012>014-020>022-031>034-043>046-140400-
   NORTHWEST IOWA
  
CITY           SKY/WX    TMP DP  RH WIND       PRES   REMARKS
CARROLL *      CLOUDY    25  21  86 S3        30.13S                  
CHEROKEE *     CLOUDY    27  24  87 S5        30.10S WCI  22          
DENISON *      CLEAR     28  25  86 S8        30.14F WCI  20          
LE MARS *      CLEAR     25  23  93 S7        30.08F WCI  17          
ORANGE CITY *  CLOUDY    21  21 100 SW8       30.07S WCI  12          
SHELDON *      CLOUDY    21  21 100 S9        30.05F WCI  11          
SIOUX CITY     CLOUDY    29  23  78 S3        30.11F                  
SPENCER        CLOUDY    20  16  84 S12       30.07F WCI   8          
STORM LAKE *   CLOUDY    27  23  86 SW14      30.08F WCI  15          
$$
 
IAZ055>058-069>071-079>083-090>094-140400-
   SOUTHWEST IOWA
  
CITY           SKY/WX    TMP DP  RH WIND       PRES   REMARKS
ATLANTIC *     CLOUDY    23  23 100 CALM      30.15F                  
AUDUBON *      CLOUDY    21  18  86 CALM      30.14F                  
CLARINDA *     CLEAR     32  28  86 S5        30.20S WCI  27          
COUNCIL BLFS * CLEAR     34  32  93 S7        30.14F WCI  28          
CRESTON *      CLEAR     34  25  69 S13       30.17S WCI  25          
HARLAN  *      PTCLDY    27  27 100 CALM      30.18S                  
LAMONI         CLEAR     36  23  59 S13       30.18F WCI  27          
RED OAK *      CLEAR     27  25  93 CALM      30.17S                  
SHENANDOAH *   CLEAR     30  28  93 CALM      30.18S                  
$$
 
IAZ047>049-059>061-072>074-084-140400-
   CENTRAL IOWA
  
CITY           SKY/WX    TMP DP  RH WIND       PRES   REMARKS
AMES           CLOUDY    17  13  84 CALM      30.16F                  
ANKENY *       CLOUDY    27  23  86 CALM      30.18F                  
BOONE *        CLOUDY    25  21  86 S8        30.13F WCI  16          
CHARITON *     CLEAR     34  25  69 S14       30.18S WCI  24          
DES MOINES     CLOUDY    32  23  69 S9        30.17F WCI  24          
GRINNELL*      CLOUDY    27  22  81 SE9       30.20F WCI  18          
KNOXVILLE *    CLOUDY    32  21  64 S7        30.18F WCI  26          
MARSHALLTOWN   CLEAR     26  20  77 S10       30.16F WCI  16          
NEWTON *       CLOUDY    25  19  80 S10       30.18F WCI  15          
PELLA *        CLOUDY    31  23  72 SE6       30.21F WCI  25          
$$
 
IAZ004>006-015-016-023>025-035-036-140400-
   NORTH CENTRAL IOWA
  
CITY           SKY/WX    TMP DP  RH WIND       PRES   REMARKS
CLARION *      CLOUDY    23  23 100 S13       30.12F WCI  11          
ESTHERVILLE    CLOUDY    19  17  92 S12       30.06F WCI   7          
FORT DODGE *   CLOUDY    28  23  81 S10       30.12F WCI  19          
MASON CITY     CLOUDY    16  12  84 S10       30.12F FOG     WCI   4  
FOREST CITY *  FAIR      23  21  93 S8        30.10F WCI  14          
WEBSTER CITY * CLOUDY    25  19  80 S9        30.12S WCI  15          
IOWA FALLS *   FAIR      19  16  88 S7        30.16S WCI  10          
$$

IAZ007>011-017>019-026>030-037>042-050>054-066-140400-
   NORTHEAST IOWA
  
CITY           SKY/WX    TMP DP  RH WIND       PRES   REMARKS
CEDAR RAPIDS   FAIR      27  20  75 S8        30.20S WCI  19          
CHARLES CITY * FAIR      23  21  93 S10       30.15F WCI  12          
CLINTON *      FAIR      22  17  81 SE7       30.25F WCI  13          
DECORAH *      FAIR      23  19  86 S9        30.14F WCI  13          
DUBUQUE        FAIR      18  13  80 S8        30.21S WCI   8          
MONTICELLO *   FAIR      23  18  80 S8        30.21F WCI  14          
OELWEIN *      FAIR      19  19 100 S13       30.17F WCI   7          
WATERLOO       FAIR      22  18  85 S8        30.18F WCI  12          
$$
 
IAZ064-065-067-068-078-140400-
   EAST CENTRAL IOWA
  
CITY           SKY/WX    TMP DP  RH WIND       PRES   REMARKS
DAVENPORT      FAIR      29  21  72 S12       30.26F WCI  19          
IOWA CITY      FAIR      24  17  74 CALM      30.25F                  
MT. PLEASANT * CLOUDY    32  25  74 S10       30.25F WCI  24          
MUSCATINE *    FAIR      19  18  93 CALM      30.26F                  
QUAD CITIES    FAIR      27  21  78 CALM      30.25F                  
$$
 
IAZ062-063-075>077-085>089-095>099-140400-
   SOUTHEAST IOWA
  
CITY           SKY/WX    TMP DP  RH WIND       PRES   REMARKS
BURLINGTON     CLOUDY    31  23  72 S5        30.26S WCI  26          
FAIRFIELD *    CLOUDY    32  25  74 S10       30.22F WCI  24          
FORT MADISON * CLEAR     32  27  80 S7        30.26F WCI  26          
KEOKUK *       CLEAR     34  28  80 S7        30.25F WCI  28          
OSKALOOSA *    FAIR      25  21  85 S8        30.22S WCI  16          
OTTUMWA        CLOUDY    32  23  69 S12       30.21F WCI  23          
WASHINGTON *   CLOUDY    30  25  80 S10       30.24F WCI  21          
$$

ABBREVIATIONS USED IN REMARKS
   TC - TEMPERATURES IN CELSIUS
  WCI - WIND CHILL INDEX
   HX - HEAT INDEX
  VSB - VISIBILITY  
$$